Flag for Switzerland Weather past 2 weeks in Schwyz, Schwyz, Switzerland

Now
67 °F

Mild.


Feels Like: 67 °F
Forecast: 67 / 93 °F
Wind: 1 mph from Northwest

Location: Altdorf

Current Time: Aug 5, 2015 at 2:12:26 AM

Latest Report: Aug 5, 2015 at 1:00 AM


Visibility: N/A

Pressure: 30.10 "Hg (28.34 "Hg at 515m altitude)

Humidity: 95%

Dew point: 65 °F

Location of SchwyzLocation

Historic Weather in Schwyz — Graph

°F

Schwyz temperature yesterday

Maximum temperature yesterday: 80 °F (at 11:00 AM)
Minimum temperature yesterday: 62 °F (at 6:00 AM)
Average temperature yesterday: 69 °F

Past Weeks' High & Low Weather Summary

 TemperatureHumidityPressure
High87 °F (Jul 22, 2:00 PM)98% (Jul 27, 4:00 AM)30.11 "Hg (Jul 27, 4:00 AM)
Low49 °F (Jul 31, 7:00 AM)45% (Jul 21, 6:00 PM)29.66 "Hg (Jul 24, 5:00 PM)
Average67 °F74%29.94 "Hg
* Reported Midnight between Jul 20 and Jul 21 — Midnight between Aug 4 and Aug 5, Schwyz, Weather by CustomWeather, © 2015

Note: Actual official high and low records may vary slightly from our data, if they occured in-between our weather recording intervals... More about our weather records

Advertising

Schwyz weather history for previous 24 hours

 ConditionsComfort  
Time TempWeatherWind HumidityBarometerVisibility
12:00 AM
Wed, Aug 5
67 °FMild.1 mph95%30.09 "HgN/A
10:00 PM
Tue, Aug 4
69 °FMild.3 mph90%30.07 "HgN/A
9:00 PM68 °FMild.2 mph96%30.06 "HgN/A
8:00 PM69 °FPartly sunny.1 mph88%30.04 "Hg12 mi
7:00 PM70 °FMild.1 mph86%30.03 "HgN/A
6:00 PM71 °FMild.3 mph85%30.01 "HgN/A
5:00 PM69 °FThundershowers. Low clouds.9 mph89%30.03 "Hg1 mi
4:00 PM67 °FMild.8 mph93%30.06 "HgN/A
3:00 PM75 °FMild.16 mph59%30.00 "HgN/A
2:00 PM76 °FOvercast.13 mph63%29.98 "Hg11 mi
1:00 PM78 °FWarm.15 mph55%29.97 "HgN/A
12:00 PM78 °FWarm.17 mph53%29.97 "HgN/A
11:00 AM80 °FPartly sunny.9 mph50%29.95 "Hg12 mi
10:00 AM73 °FMild.5 mph72%29.96 "HgN/A
9:00 AM69 °FMild.3 mph78%29.95 "HgN/A
8:00 AM65 °FPartly sunny.1 mph89%29.96 "Hg12 mi
7:00 AM63 °FMild.3 mph84%29.97 "HgN/A
6:00 AM62 °FCool.3 mph88%29.97 "HgN/A
5:00 AM63 °FPassing clouds.2 mph85%29.97 "Hg19 mi
4:00 AM63 °FMild.3 mph88%29.98 "HgN/A
3:00 AM64 °FMild.3 mph87%29.99 "HgN/A
2:00 AM66 °FPassing clouds.2 mph82%29.98 "Hg19 mi
Weather by CustomWeather, © 2015

See weather overviewHow to use our weather pages